Temperature
17 17 17 17 17 17 17 17 17 17 17 17 17 17 17 17 18 18 18 17 17 17 18 18 18 18 18 18 18 18 18 18 17 17 17 17 17 17 17 17 17 17 16
17 17 17 17 17 17 16 16 16 16 16 17 17 17 17 17 17 18 17 17 17 17 18 18 18 18 18 18 18 18 18 18 18 17 17 17 17 17 17 17 17 17 16
16 16 16 16 16 16 16 16 16 16 16 16 16 16 16 17 17 17 17 17 17 17 18 18 18 18 18 18 18 18 18 18 18 18 17 17 17 17 17 17 17 17 17
16 16 15 15 15 15 15 15 15 15 15 15 16 16 16 16 16 17 17 17 17 17 17 17 18 18 18 18 18 18 18 18 18 18 18 17 17 17 17 17 17 17 17
15 15 15 15 15 15 15 15 15 15 15 15 15 16 16 16 16 16 16 17 17 17 17 17 17 17 17 17 18 18 18 18 17 18 18 17 17 17 17 17 17 17 17
15 15 14 14 14 14 14 14 14 14 14 14 15 15 15 16 16 16 16 16 16 17 17 17 17 17 17 17 17 17 17 18 18 17 17 17 17 17 17 17 17 17 17
14 14 14 14 13 13 13 13 13 13 13 14 14 15 15 16 16 17 17 16 16 16 16 16 16 17 17 17 17 17 17 17 17 18 17 17 17 17 17 17 17 17 17
14 13 13 13 13 13 13 13 13 13 13 13 14 14 15 16 17 17 17 17 16 16 16 16 16 16 16 16 17 17 17 17 17 17 17 17 17 17 17 17 17 17 17
14 13 13 12 12 12 12 12 13 12 12 13 13 14 14 15 15 16 16 16 16 16 16 16 16 16 16 16 16 16 17 17 17 17 17 17 17 17 17 17 17 17 17
13 13 12 12 12 12 12 12 12 12 12 12 13 13 14 14 14 14 15 15 16 16 16 16 16 16 16 16 16 16 16 16 17 17 17 17 17 17 17 17 17 17 17
13 13 13 12 12 11 11 11 12 12 12 12 12 12 13 13 13 13 14 15 15 15 15 15 15 15 15 15 15 16 16 16 16 16 17 17 17 17 17 17 17 17 17
14 13 13 12 12 11 11 11 11 11 11 11 11 12 12 12 13 13 13 14 14 15 15 15 15 15 15 15 15 15 15 16 16 16 16 16 17 17 17 17 17 17 17
13 13 13 12 12 11 11 11 11 11 11 11 11 11 11 11 12 12 13 13 13 14 14 15 15 15 15 15 15 15 15 15 15 16 16 16 16 16 16 16 17 17 17
13 13 12 12 11 11 11 11 11 11 11 11 11 11 11 11 11 12 12 12 13 13 14 14 15 15 15 15 15 15 15 15 15 15 15 16 16 16 16 16 16 16 16
12 12 12 12 11 11 11 11 11 11 11 11 11 11 11 11 11 11 12 12 12 12 13 13 14 14 14 14 14 14 14 14 15 15 15 15 16 16 16 16 16 16 16
12 12 12 11 11 11 11 11 11 11 11 11 11 11 11 11 11 11 11 11 12 12 12 12 13 13 14 14 14 14 14 14 14 14 15 15 15 15 16 16 16 16 16
12 12 11 11 11 11 11 11 11 11 11 11 10 10 11 11 11 11 11 11 11 12 12 12 12 13 13 13 13 13 13 13 14 14 14 15 15 15 15 15 15 16 16
12 11 11 11 11 11 11 11 11 11 10 10 10 10 10 10 10 10 10 10 11 11 11 11 12 12 12 12 13 13 13 13 13 14 14 15 15 15 15 15 15 15 15
12 12 11 11 11 11 11 11 11 10 10 10 10 10 10 10 10 10 10 10 10 11 11 11 11 11 12 12 12 13 13 13 13 13 14 14 14 15 15 15 15 15 15
12 12 11 11 11 11 11 11 11 10 10 10 10 10 10 10 10 10 10 10 10 10 10 10 11 11 11 12 12 13 13 13 13 13 13 14 14 14 14 15 15 15 15
12 12 11 11 11 11 11 11 11 10 10 10 10 10 10 10 10 10 10 10 10 10 10 10 10 11 11 12 12 12 12 13 13 13 13 13 14 14 14 14 15 15 15
12 12 12 11 11 11 11 11 11 10 10 10 10 10 10 9 10 10 10 10 10 10 10 10 10 10 11 11 11 12 12 12 12 13 13 13 13 14 14 14 15 15 15
12 12 12 11 11 11 11 11 10 10 10 10 10 9 9 9 9 10 10 9 10 9 9 9 9 10 10 11 11 11 11 11 11 12 12 12 13 13 14 14 14 15 15
12 12 12 12 11 11 11 10 10 10 10 10 10 9 9 9 9 9 9 9 9 9 9 9 9 10 10 10 10 10 10 11 11 11 12 12 12 13 13 13 14 14 15
13 12 12 12 11 11 11 10 10 10 10 9 9 9 9 9 9 9 9 9 9 9 9 9 9 9 10 10 10 10 10 10 10 11 11 11 12 12 12 13 13 14 14
13 12 12 12 11 11 11 11 10 10 9 9 9 9 9 9 9 9 9 9 9 9 9 9 9 9 9 9 10 9 9 9 10 10 11 11 12 12 12 12 13 13 13
Wind_Speed
2 2 2 2 4 3 1 1 2 3 4 6 7 7 7 8 9 8 6 14 18 19 19 19 19 19 19 20 20 19 19 19 18 18 17 17 16 16 15 14 14 13 13
3 2 2 1 2 2 2 3 3 3 4 4 5 6 7 9 10 10 8 11 15 17 18 19 20 21 21 21 21 21 21 21 21 20 20 19 19 18 17 16 15 15 14
5 4 2 1 2 3 3 4 4 4 4 5 5 5 5 7 8 10 10 10 12 17 20 21 22 22 23 23 23 23 23 23 23 23 22 21 21 21 20 19 18 17 16
5 5 3 3 5 6 4 3 3 3 3 4 4 5 4 4 7 10 11 12 13 13 17 22 23 24 24 24 24 24 25 25 25 25 24 23 23 23 23 22 20 19 19
5 5 4 3 5 4 3 5 3 3 4 5 6 6 6 6 7 8 8 11 13 14 15 19 24 26 26 26 26 26 26 27 27 26 26 26 25 25 25 24 23 22 21
5 5 4 4 5 4 4 5 5 4 4 5 8 8 5 7 7 7 8 8 11 14 16 17 19 23 27 27 27 27 27 27 28 28 28 28 27 27 26 26 25 24 23
4 4 3 4 4 4 4 5 5 6 6 5 5 6 7 8 7 7 6 5 5 7 10 12 13 15 17 26 28 27 28 28 28 28 28 29 29 29 28 28 27 26 25
2 4 3 4 5 5 5 5 4 4 6 6 5 6 6 6 4 4 3 5 5 2 3 7 9 12 13 14 20 27 28 28 29 29 29 29 30 30 30 30 29 28 28
2 2 3 3 4 5 5 5 4 5 5 6 5 4 4 4 6 4 4 1 1 2 2 2 6 9 13 14 14 21 27 28 29 29 30 30 31 32 31 31 30 30 29
3 3 3 3 3 4 6 6 5 5 5 5 6 5 4 4 3 5 5 4 3 3 4 4 4 5 10 12 14 16 21 26 28 29 30 31 31 32 32 31 31 31 30
4 4 4 2 2 4 5 5 5 5 5 6 5 6 6 4 4 5 6 6 5 3 3 4 3 4 8 10 12 15 18 22 25 27 28 29 30 32 32 32 32 31 31
3 3 3 2 2 3 4 5 5 6 5 6 5 5 6 5 5 5 6 6 6 4 3 2 3 3 6 9 12 12 14 17 20 22 25 27 29 31 33 33 33 32 32
3 2 2 2 2 4 5 5 5 6 6 7 6 5 6 6 5 5 5 6 7 6 5 4 3 2 5 6 7 9 10 13 17 18 20 23 27 30 32 33 34 33 32
4 3 2 3 4 5 6 5 5 6 6 6 7 7 5 6 6 5 5 6 7 7 6 6 3 2 3 3 4 7 7 11 14 16 18 20 23 27 30 31 33 33 33
5 5 4 5 5 5 6 6 6 7 7 7 7 7 6 6 6 6 5 5 6 7 7 6 3 2 2 4 5 6 7 10 13 16 17 18 21 24 27 29 31 32 32
5 5 6 6 6 6 6 6 6 7 7 7 7 8 7 6 6 6 6 6 6 7 8 6 5 5 4 4 5 6 7 9 12 16 18 19 21 23 25 27 29 30 31
5 6 6 6 7 7 7 7 7 8 8 8 8 8 8 8 7 6 6 6 6 6 8 7 6 5 5 5 4 5 8 9 10 15 18 20 21 22 23 25 27 29 30
5 6 6 6 7 8 7 7 8 8 8 8 8 9 8 8 8 7 7 7 7 7 7 9 7 6 7 7 6 6 6 9 9 13 17 19 21 22 23 24 26 28 29
6 6 7 7 7 8 8 8 8 8 8 8 9 9 9 9 9 7 8 8 7 9 7 7 8 6 6 6 6 7 7 5 8 11 14 17 19 21 23 24 25 27 28
6 7 7 7 7 8 8 8 8 7 8 8 9 9 9 9 9 9 8 8 8 8 8 8 8 7 7 7 6 6 6 5 6 7 8 10 13 18 20 22 24 25 27
8 7 7 7 7 8 9 6 5 8 7 8 8 9 10 11 12 10 10 7 7 6 7 7 8 7 7 6 5 4 5 4 5 5 5 5 6 7 11 17 21 24 26
6 6 7 8 8 10 4 3 4 7 8 9 9 9 10 11 13 15 16 15 12 10 9 8 8 8 7 6 5 5 4 4 4 3 4 5 4 5 6 9 16 21 24
6 7 7 8 8 8 9 9 9 7 9 9 10 9 12 13 11 8 10 15 16 17 16 11 11 11 9 7 6 6 6 6 5 4 3 4 3 4 3 5 12 18 21
6 6 7 8 8 10 10 10 10 9 10 10 11 11 11 11 13 10 9 9 9 10 13 13 12 13 12 9 7 7 7 8 7 5 5 4 3 2 1 1 6 13 18
6 7 8 8 9 9 9 11 10 7 9 10 11 11 11 10 11 11 8 9 9 9 12 15 15 15 16 14 9 5 6 6 7 6 4 4 3 2 1 1 1 7 14
7 8 8 8 9 9 9 11 12 8 9 9 8 9 11 10 9 7 7 8 9 9 9 10 9 12 13 13 14 11 9 9 7 6 5 5 4 3 2 1 1 2 6
Wind_Direction
29 19 354 330 301 302 307 307 292 285 278 272 263 263 268 263 261 257 225 193 193 195 195 196 200 204 206 205 204 202 200 198 195 194 192 190 186 184 183 182 179 176 173
36 6 312 305 298 318 333 294 273 262 257 255 256 254 251 257 254 259 242 213 205 205 205 206 208 209 211 210 209 207 205 203 199 197 197 195 193 191 189 189 187 183 181
23 348 311 322 0 328 290 270 280 277 268 265 260 261 256 256 254 249 247 233 218 217 216 215 215 214 215 215 213 210 208 206 203 200 200 200 198 196 195 194 192 190 189
19 342 331 15 4 334 313 288 262 279 301 307 299 281 267 253 255 248 239 235 229 227 223 224 221 219 218 218 218 215 211 209 206 203 202 202 202 200 199 198 198 196 195
15 353 340 356 339 324 314 314 3 355 329 320 300 271 258 251 246 248 236 232 228 226 224 224 223 222 222 222 220 218 215 212 209 207 205 204 205 204 202 202 201 200 200
22 8 319 9 356 326 330 345 339 322 299 285 288 297 291 266 250 244 240 233 228 228 227 224 217 222 224 224 222 221 218 215 212 210 209 207 207 206 205 204 203 203 203
17 335 324 349 324 322 337 328 331 321 308 290 287 289 282 265 245 230 227 230 236 238 233 225 212 211 219 224 224 223 221 218 216 213 213 211 210 208 206 205 205 204 205
352 316 24 339 339 338 311 296 297 297 304 312 311 304 300 293 308 265 218 212 222 226 244 239 223 216 219 217 223 225 225 223 220 216 215 214 212 210 208 207 206 205 206
311 316 322 313 328 316 318 337 314 307 305 307 298 299 306 324 336 322 331 293 201 210 247 259 241 230 228 225 220 224 225 225 223 221 218 216 214 211 210 209 208 207 207
268 270 276 295 314 313 313 311 352 332 312 304 303 297 284 301 306 317 320 317 276 237 231 251 263 248 239 234 230 227 225 225 224 224 222 219 215 212 210 210 211 210 209
244 230 230 232 283 288 300 320 320 313 309 305 311 314 309 298 264 265 291 306 301 273 243 232 239 239 246 240 236 234 228 225 224 225 224 222 218 213 211 212 214 214 212
267 224 220 169 267 285 306 308 300 292 286 293 298 301 302 298 294 290 292 298 297 291 273 254 249 238 240 238 241 240 230 225 222 223 225 224 221 217 214 213 214 216 216
315 17 24 25 306 298 289 279 280 277 279 281 282 278 284 292 294 295 294 296 298 298 288 265 242 232 246 236 230 241 235 226 223 225 227 226 222 219 216 214 214 216 216
316 341 322 285 273 273 279 281 282 276 270 267 270 270 274 278 279 280 279 286 292 292 286 275 250 234 243 241 222 219 235 234 228 229 231 230 225 220 216 215 214 214 215
303 326 323 298 279 271 267 268 266 270 275 272 269 268 260 267 271 268 267 268 274 283 285 286 278 258 238 226 212 217 237 240 236 233 232 231 228 223 218 215 213 213 213
290 291 283 285 284 280 271 262 263 262 261 259 257 260 265 267 271 275 272 266 261 267 276 284 284 276 275 271 227 228 249 249 243 237 234 231 227 224 221 217 214 213 213
276 277 276 276 278 276 273 266 263 265 264 263 264 264 258 256 260 269 274 272 266 262 269 276 277 281 279 272 260 249 260 250 248 241 236 234 229 225 223 219 216 214 213
272 273 273 275 276 278 277 273 271 275 272 269 265 265 266 265 255 254 262 269 270 270 269 274 276 274 270 265 251 237 247 252 247 242 236 233 228 225 223 221 219 216 214
275 278 278 277 276 277 276 275 272 271 271 272 271 268 265 263 263 255 254 260 267 270 267 268 271 266 263 262 261 252 247 242 253 251 237 231 226 223 221 219 218 217 214
274 273 272 273 273 275 275 272 274 276 275 274 273 270 267 262 260 258 258 253 257 264 270 270 269 266 263 257 251 243 249 237 242 246 240 226 222 221 221 218 216 215 213
274 277 279 279 277 276 274 281 288 287 291 292 286 280 273 267 258 255 259 257 262 263 267 269 269 268 263 262 263 255 255 251 241 233 235 224 215 217 216 219 217 215 212
270 274 276 279 279 283 291 280 271 291 290 285 283 280 280 273 261 246 242 244 245 253 260 266 272 272 276 284 288 286 278 269 263 237 229 239 220 220 215 213 212 210 209
274 273 274 275 276 277 265 250 246 262 274 275 276 277 280 280 284 269 249 242 243 244 242 249 260 265 272 281 298 298 291 284 276 274 259 255 238 232 229 234 212 205 204
275 276 276 276 274 274 263 241 239 250 267 269 268 267 267 269 274 273 273 263 252 248 241 240 244 251 256 263 267 274 277 279 271 255 230 241 238 238 239 232 212 202 200
269 271 273 270 270 271 255 234 230 258 266 270 270 271 269 267 263 255 256 261 263 262 259 249 235 237 239 243 246 263 268 266 268 259 225 214 212 213 222 250 216 199 198
269 273 272 271 274 275 259 233 221 251 268 276 277 275 273 269 262 241 247 259 264 267 273 277 261 251 247 244 235 233 242 251 256 259 227 200 197 179 192 215 185 172 186
Height
1552 1552 1552 1552 1552 1552 1552 1552 1552 1552 1553 1554 1554 1555 1554 1555 1556 1557 1558 1558 1560 1563 1565 1566 1569 1572 1574 1576 1578 1580 1582 1585 1587 1590 1592 1594 1596 1598 1600 1602 1604 1606 1608
1550 1550 1550 1550 1550 1550 1550 1550 1550 1550 1550 1550 1551 1551 1551 1552 1552 1553 1554 1555 1557 1559 1560 1562 1565 1568 1570 1573 1575 1577 1579 1582 1584 1587 1589 1592 1594 1597 1599 1601 1603 1605 1607
1549 1549 1549 1549 1548 1548 1548 1548 1547 1547 1547 1547 1547 1548 1548 1548 1548 1549 1550 1551 1552 1554 1556 1558 1560 1563 1566 1568 1571 1573 1576 1578 1581 1584 1586 1589 1592 1594 1597 1599 1601 1603 1606
1548 1547 1547 1547 1546 1546 1546 1546 1546 1545 1545 1544 1544 1544 1544 1544 1544 1545 1545 1546 1547 1549 1550 1553 1555 1557 1560 1563 1566 1569 1572 1574 1577 1580 1583 1586 1588 1591 1594 1596 1599 1601 1604
1546 1546 1545 1545 1544 1544 1544 1544 1544 1543 1542 1541 1541 1541 1541 1540 1540 1540 1541 1542 1542 1544 1545 1547 1549 1552 1555 1557 1560 1563 1566 1569 1572 1575 1578 1581 1584 1587 1590 1593 1596 1599 1601
1545 1544 1544 1543 1542 1542 1542 1541 1541 1540 1539 1539 1538 1538 1537 1536 1536 1536 1536 1537 1538 1539 1540 1542 1544 1546 1549 1551 1554 1557 1560 1564 1567 1570 1573 1576 1580 1583 1586 1589 1592 1595 1598
1543 1542 1541 1540 1540 1540 1539 1539 1538 1537 1537 1537 1537 1535 1534 1533 1532 1532 1532 1533 1534 1535 1536 1537 1539 1541 1543 1545 1548 1551 1554 1557 1561 1564 1567 1571 1574 1578 1581 1585 1588 1591 1594
1540 1541 1539 1538 1538 1537 1537 1536 1536 1535 1534 1535 1535 1534 1532 1532 1529 1529 1529 1530 1530 1531 1532 1533 1535 1536 1538 1539 1541 1544 1547 1551 1554 1557 1561 1565 1569 1572 1576 1579 1583 1586 1590
1539 1538 1536 1536 1535 1535 1535 1534 1534 1533 1532 1532 1533 1533 1532 1530 1528 1527 1527 1528 1528 1528 1529 1530 1530 1531 1533 1534 1536 1538 1541 1544 1547 1550 1554 1558 1562 1566 1570 1574 1577 1581 1585
1536 1535 1534 1533 1533 1532 1532 1532 1532 1530 1530 1530 1530 1531 1531 1530 1529 1527 1526 1526 1526 1526 1526 1526 1527 1527 1528 1529 1530 1532 1534 1537 1540 1543 1547 1551 1555 1559 1563 1568 1571 1575 1579
1534 1533 1532 1531 1530 1530 1530 1529 1528 1528 1527 1528 1527 1527 1527 1527 1527 1527 1525 1524 1524 1524 1523 1523 1523 1523 1523 1524 1525 1526 1528 1530 1533 1536 1540 1543 1547 1552 1556 1561 1565 1569 1573
1533 1532 1531 1529 1528 1528 1527 1526 1526 1525 1525 1524 1524 1524 1524 1525 1525 1524 1523 1522 1521 1521 1520 1520 1520 1519 1519 1519 1520 1521 1522 1524 1526 1528 1532 1536 1540 1544 1548 1553 1558 1562 1566
1531 1530 1529 1527 1526 1525 1524 1523 1523 1522 1522 1521 1521 1521 1521 1521 1521 1521 1521 1520 1519 1518 1517 1517 1516 1516 1515 1515 1515 1515 1516 1517 1519 1521 1524 1528 1531 1536 1540 1545 1550 1555 1559
1528 1527 1525 1524 1523 1522 1521 1521 1520 1519 1519 1518 1518 1518 1517 1517 1517 1518 1518 1517 1516 1514 1514 1513 1512 1512 1511 1511 1510 1510 1511 1511 1512 1514 1517 1520 1523 1527 1532 1537 1542 1547 1551
1524 1524 1522 1521 1520 1519 1518 1517 1516 1516 1515 1515 1514 1514 1513 1513 1513 1513 1514 1514 1514 1511 1510 1509 1509 1508 1508 1507 1506 1505 1506 1506 1507 1508 1510 1512 1515 1519 1523 1528 1533 1538 1543
1521 1520 1519 1517 1516 1515 1515 1514 1513 1512 1512 1511 1510 1510 1509 1509 1509 1509 1509 1509 1509 1508 1506 1505 1505 1505 1504 1503 1502 1501 1501 1501 1501 1502 1503 1505 1507 1511 1515 1520 1524 1529 1534
1517 1516 1515 1514 1513 1512 1511 1510 1509 1508 1508 1507 1506 1505 1505 1504 1504 1504 1504 1504 1504 1503 1502 1501 1501 1500 1499 1499 1498 1497 1496 1496 1496 1496 1497 1499 1500 1503 1507 1511 1516 1521 1526
1514 1513 1512 1511 1509 1508 1507 1506 1505 1504 1503 1502 1502 1501 1500 1500 1499 1498 1498 1498 1498 1498 1497 1495 1495 1495 1494 1494 1493 1492 1491 1491 1490 1490 1491 1492 1494 1496 1499 1503 1507 1512 1517
1511 1509 1508 1507 1506 1504 1503 1502 1501 1500 1499 1497 1496 1496 1495 1494 1493 1493 1493 1492 1492 1493 1492 1491 1490 1490 1490 1489 1488 1487 1487 1486 1485 1485 1485 1486 1487 1489 1492 1496 1499 1504 1509
1507 1506 1504 1503 1501 1500 1499 1498 1496 1495 1494 1492 1491 1490 1489 1488 1488 1487 1487 1487 1487 1487 1486 1486 1485 1484 1484 1484 1484 1483 1481 1481 1480 1480 1480 1480 1482 1483 1486 1489 1492 1496 1500
1503 1502 1501 1499 1498 1496 1495 1494 1492 1491 1489 1487 1485 1484 1483 1482 1482 1481 1481 1481 1481 1481 1480 1480 1480 1479 1479 1479 1479 1478 1477 1476 1475 1475 1475 1475 1476 1477 1479 1482 1485 1488 1493
1500 1498 1496 1495 1493 1492 1491 1489 1487 1485 1483 1481 1479 1477 1476 1476 1475 1475 1474 1474 1475 1475 1474 1474 1474 1474 1474 1474 1474 1473 1473 1472 1471 1471 1471 1471 1471 1472 1473 1475 1478 1481 1485
1495 1494 1492 1490 1488 1487 1485 1483 1482 1479 1477 1475 1473 1471 1469 1469 1469 1469 1468 1467 1467 1467 1468 1468 1467 1467 1467 1468 1468 1468 1467 1467 1466 1466 1467 1465 1466 1466 1468 1469 1472 1475 1478
1491 1489 1487 1485 1483 1482 1480 1478 1476 1474 1471 1469 1467 1465 1464 1463 1462 1462 1461 1461 1460 1460 1460 1460 1460 1460 1461 1462 1463 1463 1462 1462 1461 1462 1462 1461 1461 1461 1462 1464 1466 1469 1472
1486 1484 1482 1480 1478 1477 1475 1473 1471 1468 1465 1463 1462 1460 1459 1457 1456 1455 1455 1454 1453 1453 1453 1453 1453 1453 1454 1455 1456 1457 1457 1457 1456 1456 1457 1457 1457 1457 1458 1459 1460 1463 1466
1481 1479 1477 1476 1474 1471 1470 1467 1466 1463 1460 1458 1457 1455 1454 1452 1451 1450 1449 1448 1447 1446 1447 1446 1446 1446 1446 1447 1448 1449 1450 1451 1451 1451 1451 1453 1452 1454 1454 1454 1456 1458 1461